Location: ???? ??????? ????
(31.2176°N, 31.6797°E)
Time: 17:55:59
(UTC+00:00)

Meteor 2-10 Rocket - Pass Details

Date: 29 October 2020
Orbit: 734 x 885 km, 81.2° (Epoch: 01 December)

Event Time Altitude Azimuth Distance (km) Brightness Sun altitude
Rises 16:02:24 0° 184° (S) 3,339 7.0 -12.4°
Reaches altitude 10° 16:04:50 10° 183° (S) 2,387 6.2 -12.9°
Maximum altitude 16:10:12 82° 97° (E) 797 3.5 -14.1°
Drops below altitude 10° 16:15:24 10° 10° (N) 2,303 5.8 -15.2°
Sets 16:17:42 0° 9° (N) 3,214 6.6 -15.7°
